Location: Pella
(41.4080°N, 92.9160°W)
Time: 03:12:50
(UTC-05:00)

Daily predictions for brighter satellites

Satellite Brightness Start Highest point End
(mag) Time Altitude Azimuth Time Altitude Azimuth Time Altitude Azimuth
Cosmos 2278 Rocket 4.2 00:06:15 10° N 00:09:23 20° NNE 00:09:23 20° NNE
SL-16 R/B 4.1 00:24:36 23° WNW 00:24:58 23° NW 00:29:26 10° N
Cosmos 1844 Rocket 4.4 00:32:28 10° NNW 00:35:07 29° N 00:35:07 29° N
Cosmos 2360 Rocket 3.9 00:43:12 29° NNW 00:43:12 29° NNW 00:46:24 10° N
Cosmos 2219 Rocket 4.2 01:05:32 23° NNE 01:05:32 23° NNE 01:07:33 10° NNE
Cosmos 2333 Rocket 4.0 01:21:45 26° NNE 01:21:45 26° NNE 01:24:12 10° NNE
Cosmos 2237 Rocket 4.1 01:23:22 25° NNE 01:23:22 25° NNE 01:25:37 10° NNE
ATLAS 3B R/B 3.3 01:56:06 59° NNE 01:56:06 59° NNE 02:02:03 10° NNE
Cosmos 2278 Rocket 4.3 01:49:32 10° NNW 01:51:12 20° NW 01:51:12 20° NW
CZ-3A R/B 3.9 02:21:46 59° NW 02:21:53 59° NW 02:26:35 10° NE
CZ-4C R/B 3.4 02:33:52 39° NE 02:33:52 39° NE 02:37:34 10° NE
Cosmos 2369 Rocket 4.2 02:34:00 10° N 02:38:30 24° NE 02:41:29 16° E
Cosmos 2219 Rocket 4.3 02:47:14 17° NW 02:47:14 17° NW 02:50:14 10° N
ATLAS CENTAUR R/B 4.0 02:44:02 10° N 02:46:10 19° NNE 02:46:10 19° NNE
USA 238 DEB 3.9 02:48:57 65° NNW 02:48:57 65° NNW 02:55:18 10° NNE
USA 238 3.9 02:49:04 65° NNW 02:49:04 65° NNW 02:55:24 10° NNE
USA 234 4.3 02:43:07 10° ENE 02:47:57 35° ESE 02:47:57 35° ESE
SL-16 R/B 4.0 02:52:07 21° ESE 02:55:12 32° ENE 03:00:34 10° N
Resurs 1-4 Rocket 4.0 02:54:27 10° NE 02:58:24 21° E 02:58:42 21° E
SL-16 R/B 3.4 03:00:59 35° NNW 03:00:59 35° NNW 03:04:54 10° NNE
Cosmos 2333 Rocket 4.2 03:03:46 18° NW 03:03:46 18° NW 03:07:15 10° N
NOSS 3-2 (A) 3.8 03:04:36 62° ENE 03:04:36 62° ENE 03:10:16 10° NE
Cosmos 2237 Rocket 4.1 03:05:11 19° NW 03:05:11 19° NW 03:08:38 10° N
Cosmos 1553 Rocket 4.1 03:08:41 69° NE 03:08:41 69° NE 03:14:08 10° N
Cosmos 1745 Rocket 4.1 03:05:54 10° N 03:12:10 73° ENE 03:12:10 73° ENE
Cosmos 2251 Rocket 4.4 03:15:49 45° ENE 03:15:49 45° ENE 03:20:01 10° NNE
NOSS 3-2 (C) 3.5 03:20:58 72° E 03:20:58 72° E 03:27:16 10° NE
CENTAUR R/B 4.3 03:19:16 17° SE 03:20:54 19° ESE 03:25:14 10° ENE
IRAS Rocket 4.2 03:27:16 10° NNE 03:32:37 79° NE 03:32:37 79° NE
ATLAS 5 CENTAUR R/B 3.2 03:33:28 30° ESE 03:33:28 30° ESE 03:37:37 10° NE
Cosmos 1603 4.2 03:42:35 48° NW 03:42:35 48° NW 03:47:41 10° NNE
Cosmos 839 Rocket 4.2 03:37:14 10° NNW 03:45:32 87° WSW 03:49:55 24° SSE
IRS-1C 4.4 03:41:08 10° N 03:45:45 55° NW 03:45:45 55° NW
ATLAS 3B R/B 4.5 03:43:21 18° WNW 03:46:31 23° NNW 03:52:09 10° NNE
In-Cosmos 22 Rocket 4.2 03:42:01 10° NNW 03:46:36 66° NNW 03:46:36 66° NNW
Cosmos 494 Rocket 3.9 03:50:40 80° ESE 03:50:40 80° ESE 03:55:57 10° NNE
Cosmos 1892 3.9 03:51:40 10° N 03:54:28 41° NNE 03:54:28 41° NNE
Cosmos 883 Rocket 4.3 03:54:52 67° SSW 03:55:48 87° W 04:01:57 10° N
Okean O Rocket 3.6 03:58:08 10° NE 04:01:48 25° E 04:04:08 17° SE
Meteor 2-3 Rocket 3.6 03:56:05 10° NNW 04:01:51 72° W 04:02:15 69° SW
Cosmos 1726 4.2 04:05:06 21° NNW 04:05:06 21° NNW 04:06:35 10° N
CZ-2D R/B 2.0 03:59:11 10° NNE 04:04:29 82° ESE 04:05:16 65° S
Cosmos 1302 Rocket 4.1 03:59:51 10° NNW 04:05:07 75° ENE 04:07:51 29° SSE
Cosmos 2315 Rocket 3.9 04:07:44 45° S 04:09:50 86° E 04:16:10 10° N
Spot 4 Rocket 4.4 04:05:33 10° N 04:10:25 49° WNW 04:10:25 49° WNW
IRS-1D 3.4 04:05:25 10° N 04:10:37 73° WNW 04:11:09 66° WSW
Cosmos 724 4.2 04:10:23 60° SW 04:11:32 84° WNW 04:17:36 10° NNE
Cosmos 1943 3.2 04:11:14 59° W 04:11:54 64° WNW 04:17:33 10° NNE
Cosmos 389 Rocket 3.7 04:17:29 34° ESE 04:17:53 36° E 04:21:08 10° NNE
ADEOS 4.2 04:15:11 10° N 04:19:58 37° WNW 04:20:01 37° WNW
ARIANE 5 R/B 2.7 04:15:04 10° N 04:20:12 55° WNW 04:20:44 53° W
CZ-4C R/B 3.8 04:19:03 19° WNW 04:20:56 22° NW 04:25:41 10° NNE
Cosmos 1184 Rocket 3.5 04:19:08 10° N 04:22:30 53° ENE 04:22:41 52° E
Cosmos 2369 Rocket 2.2 04:17:24 10° NNW 04:22:50 53° WSW 04:23:07 52° WSW
Cosmos 1455 2.1 04:26:13 81° NW 04:26:13 81° NW 04:30:01 10° N
Meteor 2-11 Rocket 4.3 04:25:35 37° SSW 04:28:09 81° W 04:34:16 10° N
SeaSat 1 2.8 04:23:29 10° SE 04:28:20 67° ENE 04:33:15 10° NNW
CZ-4B R/B 4.2 04:23:27 10° NNE 04:28:26 40° E 04:33:13 11° SSE
USA 234 3.4 04:25:50 10° NE 04:32:18 65° NW 04:35:18 34° WSW
PSLV R/B 4.3 04:31:08 10° NNE 04:34:50 54° E 04:36:16 32° SSE
Cosmos 2242 Rocket 4.1 04:36:48 41° W 04:36:53 41° WNW 04:41:15 10° N
Resurs 1-4 Rocket 2.4 04:33:26 10° N 04:38:29 48° WNW 04:39:46 40° WSW
SL-16 R/B 2.8 04:37:13 37° SW 04:38:38 42° W 04:44:29 10° NNW
Cosmos 1862 Rocket 3.4 04:40:58 46° SSW 04:42:11 75° W 04:46:36 10° N
CZ-2C R/B 3.8 04:39:47 10° SSE 04:44:12 73° ENE 04:48:37 10° N
Cosmos 1943 Rocket 2.1 04:40:01 10° NNW 04:45:43 81° WSW 04:51:21 10° SSE
ADEOS II 3.9 04:48:11 10° NE 04:52:47 30° E 04:57:20 10° SSE
ERS-2 4.2 04:51:11 10° NNW 04:52:49 15° NW 04:52:49 15° NW
Thor Agena Rocket 4.1 04:49:08 10° SSE 04:54:10 59° ENE 04:59:18 10° N
Cosmos 1408 3.0 04:51:17 10° N 04:55:01 63° E 04:58:44 10° SSE
Nadezhda 1 Rocket 4.3 04:50:59 10° S 04:57:11 70° E 05:03:30 10° NNE
Cosmos 1992 Rocket 4.2 04:55:16 10° NNW 05:00:30 73° ENE 05:05:43 10° SSE
PAYLOAD B 4.2 04:55:41 10° NNE 05:01:15 85° ESE 05:06:30 11° SSW
SL-27 R/B 2.4 05:00:36 36° SSW 05:01:58 76° WNW 05:05:36 10° NNE
Centaur D-1A AC-31 3.4 04:58:25 22° WSW 05:02:46 29° SSW 05:06:57 10° SE
Cosmos 1825 2.2 04:58:58 10° N 05:02:47 82° E 05:06:34 10° S
Aureole 3 Rocket 4.3 04:56:02 10° S 05:03:09 64° E 05:08:13 10° NNE
USA 32 4.3 04:59:01 10° S 05:04:13 72° E 05:09:27 10° N
ADEOS Rocket 4.2 04:58:55 10° NNE 05:06:32 57° E 05:14:05 10° S
Abrixas rocket 4.1 05:04:06 11° NW 05:06:53 29° NNE 05:09:52 10° ENE
MOZ.5/SAFIR/RUBIN 5/SL-8 3.7 05:02:20 10° S 05:06:54 60° W 05:11:30 10° NNW
Cosmos 1733 Rocket 3.8 05:04:01 10° NNW 05:07:56 33° W 05:09:12 27° WSW
CENTAUR R/B 2.5 05:06:29 22° SW 05:10:36 75° NW 05:17:32 10° NNE
IRS-1C Rocket 4.1 05:06:50 10° N 05:12:02 62° WNW 05:16:13 16° SSW
ARGOS Delta rocket 4.1 05:08:29 10° N 05:12:39 42° WNW 05:14:57 23° SW
Cosmos 1782 Rocket 3.7 05:11:56 10° N 05:16:18 76° E 05:20:37 10° SSE
BREEZE-M DEB (TANK) 4.0 05:12:39 10° WNW 05:16:38 62° SSW 05:27:12 10° SE
Cosmos 1656 Rocket 3.6 05:11:33 10° NNW 05:17:00 86° ENE 05:22:25 10° SSE
Cosmos 1862 3.3 05:13:07 10° NNW 05:17:02 59° W 05:20:56 10° S
ATLAS 5 CENTAUR R/B 2.7 05:15:02 21° W 05:17:42 37° NW 05:22:36 10° NNE
NAVSTAR 52 R/B(PAM-D 4.2 05:19:07 26° SE 05:19:07 26° SE 05:20:14 10° ESE
UNKNOWN OBJECT B 4.3 05:16:35 10° NNW 05:19:12 18° WNW 05:19:46 18° W
Cosmos 2074 Rocket 4.1 05:15:28 10° NNW 05:21:31 55° W 05:27:34 10° SSW
PSLV R/B 3.2 05:20:05 23° W 05:22:05 76° S 05:25:29 10° ESE
Cosmos 2154 Rocket 4.2 05:17:58 10° N 05:24:18 77° E 05:30:39 10° SSE
Cosmos 2184 Rocket 4.2 05:19:26 10° NNW 05:25:38 54° W 05:31:46 10° SSW
Meteor 1-26 Rocket 4.5 05:21:55 10° S 05:27:44 79° E 05:33:38 10° NNE
CZ-4B R/B 3.1 05:29:01 10° N 05:32:31 43° WNW 05:35:40 13° SW
Cosmos 1933 4.0 05:31:29 14° SW 05:34:34 37° WNW 05:38:24 10° N
Meteor 1-14 Rocket 4.5 05:30:39 10° N 05:36:29 80° E 05:42:24 10° SSE
Cosmos 1908 Rocket 4.1 05:32:45 10° NNW 05:36:45 35° W 05:40:43 10° SSW
Okean O Rocket 2.6 05:34:15 10° N 05:38:11 31° WNW 05:41:36 13° SW
Cosmos 2221 Rocket 3.8 05:36:16 10° SSW 05:40:35 50° W 05:44:54 10° N
Okean-O 2.6 05:39:07 10° N 05:43:35 82° WNW 05:48:01 10° SSW
CZ-2D R/B 4.0 05:41:18 10° NNW 05:43:49 14° WNW 05:46:21 10° W
Cosmos 2341 Rocket 4.1 05:39:16 10° N 05:45:36 87° E 05:51:57 10° S
Cosmos 407 Rocket 3.5 05:42:26 10° SSW 05:47:38 84° WNW 05:52:57 10° NNE
Atlas Centaur 2 3.8 05:51:12 10° SSW 05:54:31 19° SSE 05:58:20 10° ESE
Cosmos 1703 Rocket 4.4 05:50:41 10° SW 05:54:42 32° WNW 05:58:45 10° NNW
Cosmos 2285 Rocket 4.5 05:50:37 10° NW 05:56:28 38° W 06:02:16 10° SSW
COSMOS 2406 3.9 05:51:23 10° SW 05:56:46 39° WNW 06:02:10 10° N
Cosmos 1782 4.0 05:54:56 10° SSE 05:58:48 47° E 06:02:42 10° NNE
Meteor PRIRODA 3.8 05:59:00 10° N 06:02:43 59° WNW 06:06:25 10° SSW
